Regional Weather Roundup
Issued by NWS

Home | Current Version | Previous Version | Graphics & Text | Print | Product List | Glossary On
Versions: 1 2 3 4 5 6 7 8 9 10 11 12 13 14 15 16 17 18 19 20 21 22 23 24 25 26 27 28 29 30 31 32 33 34 35 36 37 38 39 40 41 42 43 44 45 46 47 48 49 50
000
ASUS43 KFSD 221202
RWRSD

WEATHER ROUNDUP FOR SOUTH DAKOTA
NATIONAL WEATHER SERVICE SIOUX FALLS SD
700 AM CDT TUE MAY 22 2018

NOTE: "FAIR" INDICATES FEW OR NO CLOUDS BELOW 12,000 FEET WITH NO
SIGNIFICANT WEATHER AND/OR OBSTRUCTIONS TO VISIBILITY.


SDZ001>005-009-010-012>017-221300-
NORTHWEST AND NORTH CENTRAL SOUTH DAKOTA

CITY           SKY/WX    TMP DP  RH WIND       PRES   REMARKS
BUFFALO          N/A     53  46  77 N6        29.88R
FAITH            N/A     52  52 100 S8        29.92R
MOBRIDGE       MOCLDY    56  53  90 E7        29.91R
$$

SDZ012>016-024>037-041>051-057-063-072>074-221300-
SOUTHWEST AND SOUTH CENTRAL SOUTH DAKOTA

CITY           SKY/WX    TMP DP  RH WIND       PRES   REMARKS
RAPID CTY ARPT PTCLDY    50  48  93 W5        29.94R
PIERRE         PTCLDY    55  54  96 SE8       29.92R
CUSTER         MOCLDY    50  44  80 NW5       30.05R
ELLSWORTH AFB  PTCLDY    52  52 100 W8        29.94R
PHILIP         CLEAR     52  51  97 CALM      29.92R
PINE RIDGE     PTCLDY    52  51  97 NW6       29.95R
SPEARFISH      FAIR      50  43  76 CALM      29.97R
WINNER         FAIR      60  55  83 SE7       29.94R
$$

SDZ004>011-016>023-039-040-221300-
NORTHEAST SOUTH DAKOTA

CITY           SKY/WX    TMP DP  RH WIND       PRES   REMARKS
ABERDEEN       PTCLDY    53  50  89 CALM      29.98R FOG
WATERTOWN      FOG       52  52 100 S7        29.99S VSB 1/4
BROOKINGS      FOG       51  51 100 SE6       30.01R VSB 1/4
SISSETON         N/A     56  56 100 S6        29.98S
$$

SDZ017-020-022-023-036>040-048>070-221300-
SOUTHEAST SOUTH DAKOTA

CITY           SKY/WX    TMP DP  RH WIND       PRES   REMARKS
SIOUX FALLS    FOG       52  52 100 E3        30.01R VSB 1/4
HURON          PTCLDY    55  53  93 MISG      29.97R FOG
CHAMBERLAIN    PTCLDY    57  57 100 E6        29.95R FOG
MITCHELL       MOCLDY    57  55  93 SE7       29.97S FOG
YANKTON        RAIN      58  57  97 E9        29.98F VSB 3/4
$$

ABBREVIATIONS USED IN REMARKS
   TC - TEMPERATURE IN CELSIUS
  WCI - WIND CHILL INDEX
   HX - HEAT INDEX
  VSB - VISIBILITY




USA.gov is the U.S. government's official web portal to all federal, state and local government web resources and services.